Location: Capannuccia
(43.7000°N, 11.3000°E)
Time: 11:29:35
(UTC+00:00)

FENGYUN 1C DEB - Visible Passes

Search period start: 27 September 2021 00:00
Search period end: 07 October 2021 00:00
Orbit: 721 x 839 km, 98.9° (Epoch: 26 September)

Date Brightness Start Highest point End Pass type
(mag) Time Alt. Az. Time Alt. Az. Time Alt. Az.
27 Sep ? 01:04:54 10° E 01:08:06 16° ENE 01:11:17 10° NNE visible
27 Sep ? 02:45:24 54° S 02:46:41 81° WSW 02:52:04 10° NNW visible
27 Sep ? 04:25:57 10° W 04:26:40 10° W 04:27:41 10° WNW visible
28 Sep ? 02:12:57 42° ESE 02:14:24 54° ENE 02:19:35 10° N visible
28 Sep ? 03:53:29 21° W 03:53:54 21° W 03:57:57 10° NW visible
29 Sep ? 01:40:30 24° E 01:42:14 29° ENE 01:46:47 10° N visible
29 Sep ? 03:21:02 40° WSW 03:21:18 40° W 03:26:20 10° NNW visible
30 Sep ? 01:08:04 13° E 01:10:14 17° ENE 01:13:27 10° NNE visible
30 Sep ? 02:48:36 76° SW 02:48:51 78° WSW 02:54:11 10° NNW visible
01 Oct ? 02:16:10 55° E 02:16:33 56° ENE 02:21:43 10° N visible
01 Oct ? 03:56:43 20° W 03:56:43 20° W 03:59:59 10° NW visible
02 Oct ? 01:43:45 29° ENE 01:44:22 30° ENE 01:48:54 10° N visible
02 Oct ? 03:24:17 37° WNW 03:24:17 37° WNW 03:28:24 10° NNW visible
03 Oct ? 01:11:19 16° ENE 01:12:21 17° ENE 01:15:36 10° NNE visible
03 Oct ? 02:51:52 61° NW 02:51:52 61° NW 02:56:17 10° NNW visible
04 Oct ? 02:19:27 52° NE 02:19:27 52° NE 02:23:49 10° N visible
04 Oct ? 04:00:00 17° WNW 04:00:00 17° WNW 04:02:01 10° NW visible
05 Oct ? 01:47:02 30° NE 01:47:02 30° NE 01:51:01 10° N visible
05 Oct ? 03:27:35 28° NW 03:27:35 28° NW 03:30:28 10° NNW visible
06 Oct ? 01:14:37 17° ENE 01:14:37 17° ENE 01:17:45 10° NNE visible
06 Oct ? 02:55:10 38° NNW 02:55:10 38° NNW 02:58:22 10° NNW visible
